Tracking 23758 objects as of 26-Oct-2021
HD Live streaming from Space Station
objects crossing your sky now

SPACEBEE-15

Track SPACEBEE-15 now!
10-day predictions


NORAD ID: 46302
Int'l Code: 2020-061AG
Perigee: 532.8 km
Apogee: 533.9 km
Inclination: 97.5 °
Period: 95.2 minutes
Semi major axis: 6904 km
RCS: Unknown
Launch date: September 3, 2020
Source: United States (US)
Launch site: FRENCH GUIANA (FRGUI)
aabbcc
Your satellite tracking list
Your tracking list is empty




NASA's NSSDC Master Catalog

Two Line Element Set (TLE):
1 46302U 20061AG  21299.45710369  .00006078  00000-0  34531-3 0  9992
2 46302  97.4788  10.8080 0000824 105.1580 254.9742 15.13268308 63101
Source of the keplerian elements: AFSPC